Weather History for Marshfield, MA

Change the Weather History Date:

Friday, April 26, 2013

  Actual Average (KPYM) Record (KPYM)
Temperature  
Mean Temperature 45 °F -  
Max Temperature 51 °F 57 °F 78 °F (1982)
Min Temperature 39 °F 36 °F 23 °F (1967)
Degree Days  
Heating Degree Days 20    
Moisture  
Dew Point 40 °F    
Average Humidity 76    
Maximum Humidity 93    
Minimum Humidity 58    
Precipitation  
Precipitation 0.00 in - - ()
Sea Level Pressure  
Sea Level Pressure 30.39 in    
Wind  
Wind Speed 4 mph (NE)    
Max Wind Speed 10 mph    
Max Gust Speed 16 mph    
Visibility 10 miles    
Events      
Averages and records for this station are not official NWS values.
T = Trace of Precipitation, MM = Missing Value Source: NWS Daily Summary

Daily Weather History Graph

Daily Weather History Graph

Search for Another Location

Airport:

Trip Planner

Search our weather history database for the weather conditions in past years. The results will help you decide how hot, cold, wet, or windy it might be!

Date:

Astronomy

Apr. 26, 2013 Rise Set
Actual Time 5:45 AM EDT 7:36 PM EDT
Civil Twilight 5:15 AM EDT 8:06 PM EDT
Nautical Twilight 4:38 AM EDT 8:43 PM EDT
Astronomical Twilight 3:59 AM EDT 9:22 PM EDT
Moon 8:56 PM EDT (4/26) 6:09 AM EDT (4/26)
Length of Visible Light 14h 51m
Length of Day
13h 51m
Full, 99% of the Moon is Illuminated
Apr 26
Full
May 2
Last Quarter
May 9
New
May 18
First Quarter
May 25
Full

Hourly Weather History & Observations

Time (EDT) Temp. Windchill Dew Point Humidity Pressure Visibility Wind Dir Wind Speed Gust Speed Precip Events Conditions
12:15 AM 39.2 °F - 37.4 °F 93% 30.27 in 10.0 mi Calm Calm - N/A   Clear
12:35 AM 39.2 °F - 37.4 °F 93% 30.28 in 10.0 mi Calm Calm - N/A   Light Drizzle
12:55 AM 39.2 °F - 37.4 °F 93% 30.28 in 10.0 mi Calm Calm - N/A   Light Drizzle
1:15 AM 39.2 °F - 37.4 °F 93% 30.29 in 10.0 mi Calm Calm - N/A   Light Drizzle
1:35 AM 39.2 °F - 37.4 °F 93% 30.29 in 10.0 mi Calm Calm - N/A   Drizzle
1:55 AM 39.2 °F - 37.4 °F 93% 30.29 in 10.0 mi Calm Calm - N/A   Drizzle
2:15 AM 39.2 °F 35.9 °F 37.4 °F 93% 30.29 in 10.0 mi NW 4.6 mph - N/A   Drizzle
2:35 AM 46.4 °F 43.5 °F 39.2 °F 76% 30.29 in 10.0 mi NNW 5.8 mph - N/A   Light Drizzle
2:55 AM 48.2 °F - 39.2 °F 71% 30.30 in 10.0 mi NNW 5.8 mph - N/A   Clear
3:15 AM 46.4 °F 43.5 °F 39.2 °F 76% 30.30 in 10.0 mi NNW 5.8 mph - N/A   Clear
3:35 AM 48.2 °F - 39.2 °F 71% 30.31 in 10.0 mi North 6.9 mph - N/A   Clear
3:55 AM 46.4 °F 45.2 °F 39.2 °F 76% 30.32 in 10.0 mi NW 3.5 mph - N/A   Clear
4:15 AM 46.4 °F 45.2 °F 39.2 °F 76% 30.32 in 10.0 mi NW 3.5 mph - N/A   Clear
4:35 AM 46.4 °F 44.3 °F 39.2 °F 76% 30.33 in 10.0 mi North 4.6 mph - N/A   Clear
4:55 AM 46.4 °F 45.2 °F 39.2 °F 76% 30.33 in 10.0 mi North 3.5 mph - N/A   Clear
5:15 AM 46.4 °F 43.5 °F 39.2 °F 76% 30.34 in 10.0 mi NNE 5.8 mph - N/A   Clear
5:35 AM 46.4 °F 43.5 °F 39.2 °F 76% 30.35 in 10.0 mi NNE 5.8 mph - N/A   Clear
5:55 AM 46.4 °F 43.5 °F 39.2 °F 76% 30.36 in 10.0 mi NE 5.8 mph - N/A   Clear
6:15 AM 46.4 °F 41.5 °F 39.2 °F 76% 30.36 in 10.0 mi ENE 10.4 mph 16.1 mph N/A   Clear
6:35 AM 48.2 °F - 39.2 °F 71% 30.37 in 10.0 mi ENE 6.9 mph - N/A   Clear
6:55 AM 48.2 °F - 37.4 °F 66% 30.37 in 10.0 mi ENE 6.9 mph - N/A   Clear
7:15 AM 48.2 °F - 37.4 °F 66% 30.38 in 10.0 mi ENE 5.8 mph - N/A   Clear
7:35 AM 48.2 °F - 39.2 °F 71% 30.39 in 10.0 mi NE 5.8 mph - N/A   Clear
7:55 AM 50.0 °F - 39.2 °F 66% 30.40 in 10.0 mi NE 5.8 mph - N/A   Clear
8:15 AM 48.2 °F - 39.2 °F 71% 30.40 in 10.0 mi NE 6.9 mph - N/A   Clear
8:35 AM 50.0 °F - 39.2 °F 66% 30.40 in 10.0 mi NNE 8.1 mph - N/A   Clear
8:55 AM 50.0 °F - 39.2 °F 66% 30.41 in 10.0 mi NNE 9.2 mph - N/A   Clear
9:15 AM 50.0 °F - 39.2 °F 66% 30.41 in 10.0 mi NE 5.8 mph - N/A   Clear
9:35 AM 50.0 °F - 39.2 °F 66% 30.41 in 10.0 mi NE 5.8 mph - N/A   Clear
9:55 AM 51.8 °F - 39.2 °F 62% 30.42 in 10.0 mi ENE 5.8 mph - N/A   Clear
10:15 AM 51.8 °F - 39.2 °F 62% 30.43 in 10.0 mi NE 5.8 mph - N/A   Clear
10:35 AM 51.8 °F - 39.2 °F 62% 30.43 in 10.0 mi NE 8.1 mph - N/A   Clear
10:55 AM 51.8 °F - 39.2 °F 62% 30.43 in 10.0 mi NNE 6.9 mph - N/A   Clear
11:15 AM 51.8 °F - 37.4 °F 58% 30.43 in 10.0 mi NE 5.8 mph - N/A   Clear
11:35 AM 51.8 °F - 37.4 °F 58% 30.44 in 10.0 mi ENE 6.9 mph - N/A   Clear
11:55 AM 51.8 °F - 37.4 °F 58% 30.43 in 10.0 mi NNE 5.8 mph - N/A   Clear
12:15 PM 51.8 °F - 39.2 °F 62% 30.43 in 10.0 mi North 9.2 mph - N/A   Clear
12:35 PM 50.0 °F - 37.4 °F 62% 30.43 in 10.0 mi NE 5.8 mph - N/A   Clear
12:55 PM 51.8 °F - 39.2 °F 62% 30.42 in 10.0 mi NNE 6.9 mph - N/A   Clear
1:15 PM 51.8 °F - 39.2 °F 62% 30.42 in 10.0 mi NE 6.9 mph - N/A   Clear
1:35 PM 51.8 °F - 39.2 °F 62% 30.42 in 10.0 mi NE 9.2 mph - N/A   Clear
1:55 PM 50.0 °F - 39.2 °F 66% 30.41 in 10.0 mi NE 10.4 mph - N/A   Clear
2:15 PM 51.8 °F - 39.2 °F 62% 30.41 in 10.0 mi NNE 10.4 mph - N/A   Clear
2:35 PM 50.0 °F - 39.2 °F 66% 30.41 in 10.0 mi NNE 8.1 mph - N/A   Clear
2:55 PM 50.0 °F - 39.2 °F 66% 30.41 in 10.0 mi NNE 8.1 mph - N/A   Partly Cloudy
3:15 PM 50.0 °F - 41.0 °F 71% 30.41 in 10.0 mi NNE 6.9 mph - N/A   Scattered Clouds
3:35 PM 50.0 °F - 41.0 °F 71% 30.41 in 10.0 mi NE 8.1 mph - N/A   Mostly Cloudy
3:55 PM 50.0 °F - 42.8 °F 76% 30.40 in 10.0 mi NNE 8.1 mph - N/A   Scattered Clouds
4:15 PM 50.0 °F - 41.0 °F 71% 30.41 in 10.0 mi ENE 9.2 mph - N/A   Scattered Clouds
4:35 PM 48.2 °F - 41.0 °F 76% 30.41 in 10.0 mi NE 6.9 mph - N/A   Scattered Clouds
4:55 PM 48.2 °F - 42.8 °F 82% 30.40 in 10.0 mi NE 6.9 mph - N/A   Mostly Cloudy
5:15 PM 50.0 °F - 42.8 °F 76% 30.40 in 10.0 mi NE 5.8 mph - N/A   Mostly Cloudy
5:35 PM 48.2 °F - 42.8 °F 82% 30.41 in 10.0 mi NE 8.1 mph - N/A   Mostly Cloudy
5:55 PM 48.2 °F - 42.8 °F 82% 30.41 in 10.0 mi NE 8.1 mph - N/A   Scattered Clouds
6:15 PM 48.2 °F - 42.8 °F 82% 30.42 in 10.0 mi ENE 4.6 mph - N/A   Partly Cloudy
6:35 PM 48.2 °F - 42.8 °F 82% 30.42 in 10.0 mi ENE 5.8 mph - N/A   Clear
6:55 PM 48.2 °F - 42.8 °F 82% 30.42 in 10.0 mi ENE 4.6 mph - N/A   Clear
7:15 PM 46.4 °F 44.3 °F 42.8 °F 87% 30.43 in 10.0 mi ENE 4.6 mph - N/A   Clear
7:35 PM 46.4 °F 44.3 °F 42.8 °F 87% 30.43 in 10.0 mi East 4.6 mph - N/A   Clear
7:55 PM 46.4 °F - 42.8 °F 87% 30.44 in 10.0 mi Calm Calm - N/A   Scattered Clouds
8:15 PM 46.4 °F - 42.8 °F 87% 30.44 in 10.0 mi Calm Calm - N/A   Mostly Cloudy
8:35 PM 46.4 °F - 42.8 °F 87% 30.44 in 10.0 mi Calm Calm - N/A   Mostly Cloudy
8:55 PM 46.4 °F - 42.8 °F 87% 30.44 in 10.0 mi Calm Calm - N/A   Scattered Clouds
9:15 PM 46.4 °F - 42.8 °F 87% 30.44 in 10.0 mi Calm Calm - N/A   Clear
9:35 PM 44.6 °F - 42.8 °F 93% 30.44 in 10.0 mi Calm Calm - N/A   Scattered Clouds
9:55 PM 44.6 °F - 42.8 °F 93% 30.44 in 10.0 mi Calm Calm - N/A   Light Drizzle
10:15 PM 42.8 °F - 41.0 °F 93% 30.44 in 10.0 mi Calm Calm - N/A   Light Drizzle
10:35 PM 44.6 °F - 42.8 °F 93% 30.44 in 10.0 mi Calm Calm - N/A   Drizzle
10:55 PM 42.8 °F - 39.2 °F 87% 30.44 in 10.0 mi Calm Calm - N/A   Drizzle
11:15 PM 41.0 °F - 39.2 °F 93% 30.44 in 10.0 mi Calm Calm - N/A   Drizzle
11:35 PM 42.8 °F - 41.0 °F 93% 30.44 in 10.0 mi Calm Calm - N/A   Drizzle
11:55 PM 42.8 °F - 41.0 °F 93% 30.44 in 10.0 mi Calm Calm - N/A   Drizzle